Pomona, MO

6:55 AM CST on January 18, 2017 (GMT -0600)
West Plains Municipal

Weather History for KUNO - April, 2013

Change the Weather History Date:

Sunday, April 21, 2013

  Actual Average Record
Temperature  
Mean Temperature 54 °F 59 °F  
Max Temperature 65 °F 71 °F 91 °F (1963)
Min Temperature 42 °F 47 °F 29 °F (1953)
Degree Days  
Heating Degree Days 11 7  
Month to date heating degree days 220 201  
Since 1 July heating degree days 4266 4211  
Cooling Degree Days 0 1  
Month to date cooling degree days 15 16  
Year to date cooling degree days 15 20  
Growing Degree Days 3 (Base 50)    
Moisture  
Dew Point 35 °F    
Average Humidity 53    
Maximum Humidity 76    
Minimum Humidity 30    
Precipitation  
Precipitation 0.00 in 0.16 in 3.98 in (1974)
Month to date precipitation 2.92 3.01  
Year to date precipitation 13.99 12.86  
Sea Level Pressure  
Sea Level Pressure 30.28 in    
Wind  
Wind Speed 7 mph (ESE)    
Max Wind Speed 15 mph    
Max Gust Speed 21 mph    
Visibility 10 miles    
Events      
T = Trace of Precipitation, MM = Missing Value Source: NWS Daily Summary

Daily Weather History Graph

Daily Weather History Graph

Search for Another Location

Airport or City:

Trip Planner

Search our weather history database for the weather conditions in past years. The results will help you decide how hot, cold, wet, or windy it might be!

Date:

Astronomy

Apr. 21, 2013 Rise Set
Actual Time 6:25 AM CDT 7:47 PM CDT
Civil Twilight 5:58 AM CDT 8:14 PM CDT
Nautical Twilight 5:25 AM CDT 8:47 PM CDT
Astronomical Twilight 4:51 AM CDT 9:21 PM CDT
Moon 3:39 PM CDT (4/21) 3:41 AM CDT (4/21)
Length of Visible Light 14h 16m
Length of Day
13h 22m
Waxing Gibbous, 80% of the Moon is Illuminated
Apr 21
Waxing Gibbous
Apr 25
Full
May 2
Last Quarter
May 9
New
May 17
First Quarter

Hourly Weather History & Observations

Time (CDT) Temp. Windchill Dew Point Humidity Pressure Visibility Wind Dir Wind Speed Gust Speed Precip Events Conditions
12:53 AM 48.9 °F - 37.9 °F 66% 30.27 in 10.0 mi ESE 5.8 mph - N/A   Clear
1:53 AM 48.9 °F - 37.0 °F 64% 30.27 in 10.0 mi ESE 5.8 mph - N/A   Clear
2:53 AM 48.9 °F - 36.0 °F 61% 30.27 in 10.0 mi ESE 6.9 mph - N/A   Clear
3:53 AM 48.0 °F - 35.1 °F 61% 30.27 in 10.0 mi ESE 9.2 mph - N/A   Clear
4:53 AM 45.0 °F 42.6 °F 36.0 °F 71% 30.29 in 10.0 mi East 4.6 mph - N/A   Clear
5:53 AM 43.0 °F 40.3 °F 35.1 °F 74% 30.30 in 10.0 mi East 4.6 mph - N/A   Clear
6:53 AM 42.1 °F 38.4 °F 34.0 °F 73% 30.33 in 10.0 mi East 5.8 mph - N/A   Clear
7:53 AM 46.0 °F 40.6 °F 35.1 °F 66% 30.35 in 10.0 mi East 11.5 mph - N/A   Clear
8:53 AM 48.9 °F - 35.1 °F 59% 30.35 in 10.0 mi East 9.2 mph - N/A   Clear
9:53 AM 52.0 °F - 34.0 °F 50% 30.36 in 10.0 mi SE 8.1 mph - N/A   Clear
10:53 AM 57.0 °F - 35.1 °F 44% 30.35 in 10.0 mi SSE 10.4 mph 16.1 mph N/A   Clear
11:53 AM 60.1 °F - 34.0 °F 38% 30.34 in 10.0 mi ESE 10.4 mph 20.7 mph N/A   Clear
12:53 PM 61.0 °F - 34.0 °F 36% 30.30 in 10.0 mi Variable 5.8 mph 16.1 mph N/A   Clear
1:53 PM 63.0 °F - 35.1 °F 35% 30.27 in 10.0 mi East 10.4 mph - N/A   Clear
2:53 PM 64.0 °F - 34.0 °F 33% 30.25 in 10.0 mi SSE 10.4 mph - N/A   Clear
3:53 PM 64.0 °F - 32.0 °F 30% 30.22 in 10.0 mi South 9.2 mph 16.1 mph N/A   Clear
4:53 PM 63.0 °F - 33.1 °F 33% 30.22 in 10.0 mi SE 8.1 mph 17.3 mph N/A   Clear
5:53 PM 63.0 °F - 34.0 °F 34% 30.22 in 10.0 mi SSE 9.2 mph - N/A   Clear
6:53 PM 61.0 °F - 34.0 °F 36% 30.21 in 10.0 mi SE 8.1 mph - N/A   Clear
7:53 PM 57.9 °F - 34.0 °F 41% 30.23 in 10.0 mi SE 5.8 mph - N/A   Clear
8:53 PM 55.0 °F - 35.1 °F 47% 30.25 in 10.0 mi SE 5.8 mph - N/A   Mostly Cloudy
9:53 PM 55.0 °F - 37.0 °F 51% 30.26 in 10.0 mi ESE 5.8 mph - N/A   Overcast
10:53 PM 53.1 °F - 39.0 °F 59% 30.26 in 10.0 mi ESE 4.6 mph - N/A   Scattered Clouds
11:53 PM 50.0 °F - 37.9 °F 63% 30.25 in 10.0 mi ESE 3.5 mph - N/A   Clear